Location: Rotheul
(50.2849°N, 11.2349°E)
Time: 09:38:27
(UTC+01:00)

ISS - Pass Details

Date: 13 November 2018
Orbit: 401 x 408 km, 51.6° (Epoch: 20 November)

Event Time Altitude Azimuth Distance (km) Brightness Sun altitude
Exits shadow 05:01:55 23° 157° (SSE) 918 -1.8 -22.8°
Drops below altitude 10° 05:03:27 10° 141° (SE) 1,459 -0.5 -22.6°
Sets 05:05:36 0° 133° (SE) 2,317 0.8 -22.2°
